Flag for U.S.A. Weather past 2 weeks in Buffalo, New York, U.S.A.

30 °F

Passing clouds.

Feels Like: 23 °F
Forecast: 28 / 44 °F
Wind: 7 mph from East

Location: Greater Buffalo International Airport

Current Time: Nov 30, 2015 at 7:25:41 AM

Latest Report: Nov 30, 2015 at 6:54 AM

Visibility: 10 mi

Pressure: 30.39 "Hg

Humidity: 79%

Dew point: 24 °F

Location of BuffaloLocation

Historic Weather in Buffalo — Graph


Buffalo temperature yesterday

Maximum temperature yesterday: 37 °F (at 1:54 PM)
Minimum temperature yesterday: 27 °F (at 2:54 AM)
Average temperature yesterday: 33 °F

Past Weeks' High & Low Weather Summary

High64 °F (Nov 18, 10:54 PM)96% (Nov 28, 8:54 AM)30.60 "Hg (Nov 28, 8:54 AM)
Low23 °F (Nov 23, 6:54 AM)31% (Nov 22, 1:54 PM)29.63 "Hg (Nov 21, 10:54 PM)
Average44 °F64%30.22 "Hg
* Reported Nov 15 5:54 AM — Nov 30 5:54 AM, Buffalo, Weather by CustomWeather, © 2015

Note: Actual official high and low records may vary slightly from our data, if they occured in-between our weather recording intervals... More about our weather records


Buffalo weather history for previous 24 hours

Time TempWeatherWind HumidityBarometerVisibility
5:54 AM
Mon, Nov 30
32 °FPassing clouds.9 mph75%30.39 "Hg10 mi
4:54 AM33 °FPassing clouds.8 mph75%30.39 "Hg10 mi
3:54 AM33 °FOvercast.7 mph75%30.39 "Hg10 mi
2:54 AM34 °FPassing clouds.7 mph70%30.40 "Hg10 mi
1:54 AM34 °FPassing clouds.6 mph67%30.39 "Hg10 mi
12:54 AM34 °FPassing clouds.5 mph70%30.39 "Hg10 mi
11:54 PM
Sun, Nov 29
34 °FPassing clouds.9 mph70%30.39 "Hg10 mi
10:54 PM35 °FOvercast.8 mph70%30.41 "Hg10 mi
9:54 PM35 °FOvercast.6 mph67%30.41 "Hg10 mi
8:54 PM35 °FOvercast.3 mph67%30.42 "Hg10 mi
7:54 PM35 °FOvercast.5 mph67%30.41 "Hg10 mi
6:54 PM35 °FPassing clouds.8 mph64%30.38 "Hg10 mi
5:54 PM35 °FPassing clouds.7 mph64%30.38 "Hg10 mi
4:54 PM35 °FPassing clouds.8 mph64%30.37 "Hg10 mi
3:54 PM36 °FPartly sunny.6 mph62%30.38 "Hg10 mi
2:54 PM36 °FBroken clouds.13 mph62%30.36 "Hg10 mi
1:54 PM37 °FScattered clouds.8 mph62%30.35 "Hg10 mi
12:54 PM35 °FScattered clouds.8 mph64%30.37 "Hg10 mi
11:54 AM33 °FPartly sunny.6 mph66%30.38 "Hg10 mi
10:54 AM33 °FMostly cloudy.6 mph70%30.40 "Hg10 mi
9:54 AM32 °FMostly cloudy.5 mph73%30.38 "Hg10 mi
8:54 AM31 °FPartly sunny.No wind76%30.38 "Hg10 mi
7:54 AM31 °FPartly sunny.No wind73%30.37 "Hg10 mi
Weather by CustomWeather, © 2015

See weather overviewHow to use our weather pages